Location: Valdosta
(30.8330°N, 83.2790°W)
Time: 00:52:31
(UTC-04:00)

Star 48 S/N 10029-3 - Visible Passes

Search period start: 31 October 2014 00:00
Search period end: 09 November 2014 23:00
Orbit: 213 x 296 km, 27.6° (Epoch: 30 October)

Date Brightness Start Highest point End Pass type
(mag) Time Alt. Az. Time Alt. Az. Time Alt. Az.
06 Nov 6.1 06:23:40 10° S 06:24:32 12° SSE 06:25:24 10° SE visible
07 Nov 5.7 06:13:11 10° SSW 06:14:36 16° SSE 06:16:00 10° SE visible
08 Nov 5.3 06:02:48 11° SW 06:04:25 21° S 06:06:05 10° ESE visible
09 Nov 4.9 05:53:09 19° SSW 05:54:00 25° S 05:55:49 10° ESE visible
